Flag for Mexico Weather past 2 weeks in Monterrey, Nuevo León, Mexico

Now
82 °F

Passing clouds.


Feels Like: 85 °F
Forecast: 72 / 92 °F
Wind: 12 mph from East

Location: Monterrey / Gen Maria

Current Time: Aug 30, 2014 at 1:35:40 AM

Latest Report: Aug 29, 2014 at 11:45 PM


Visibility: 15 mi

Pressure: 29.90 "Hg

Humidity: 62%

Dew point: 68 °F

Location of MonterreyLocation

Historic Weather in Monterrey — Graph

°F

Monterrey temperature yesterday

Maximum temperature yesterday: 97 °F (at 5:46 PM)
Minimum temperature yesterday: 75 °F (at 6:49 AM)
Average temperature yesterday: 86 °F

Past Weeks' High & Low Weather Summary

 TemperatureHumidityPressure
High100 °F (Aug 17, 4:44 PM)89% (Aug 16, 7:46 AM)30.04 "Hg (Aug 16, 7:46 AM)
Low70 °F (Aug 22, 7:46 AM)12% (Aug 22, 5:51 PM)29.58 "Hg (Aug 20, 9:50 AM)
Average85 °F52%29.90 "Hg
* Reported Aug 14 11:40 PM — Aug 29 11:45 PM, Monterrey, Weather by CustomWeather, © 2014

Note: Actual official high and low records may vary slightly from our data, if they occured in-between our weather recording intervals... More about our weather records

Advertising

Monterrey weather history for previous 24 hours

 ConditionsComfort  
Time TempWeatherWind HumidityBarometerVisibility
11:45 PM
Aug 29
82 °FPassing clouds.12 mph62%29.90 "Hg15 mi
9:46 PM86 °FPassing clouds.14 mph52%29.80 "Hg15 mi
8:41 PM88 °FPartly sunny.12 mph46%29.75 "Hg15 mi
7:50 PM93 °FPartly sunny.8 mph34%29.77 "Hg15 mi
6:52 PM95 °FPartly sunny.8 mph32%29.70 "Hg15 mi
5:46 PM97 °FPartly sunny.6 mph28%29.74 "Hg15 mi
3:50 PM95 °FPartly sunny.7 mph34%29.72 "Hg15 mi
1:41 PM95 °FPartly sunny.7 mph30%29.82 "Hg15 mi
12:46 PM95 °FPartly sunny.7 mph34%29.79 "Hg12 mi
11:50 AM90 °FScattered clouds.5 mph46%29.86 "Hg15 mi
9:49 AM86 °FSunny.No wind55%29.82 "Hg15 mi
8:47 AM81 °FSunny.No wind66%29.85 "Hg15 mi
7:50 AM77 °FPassing clouds.5 mph74%29.83 "Hg6 mi
6:49 AM75 °FClear.No wind78%29.78 "Hg12 mi
5:41 AM77 °FClear.No wind74%29.81 "Hg12 mi
4:40 AM77 °FClear.No wind74%29.81 "Hg12 mi
1:40 AM81 °FClear.5 mph66%29.86 "Hg12 mi
Weather by CustomWeather, © 2014

See weather overviewHow to use our weather pages